Weather History for LRAR - July, 2013

Change the Weather History Date:

Sunday, July 7, 2013

  Actual Average Record
Temperature  
Mean Temperature 73 °F -  
Max Temperature 89 °F 81 °F 97 °F (2012)
Min Temperature 57 °F 58 °F 53 °F (2005)
Cooling Degree Days 8    
Growing Degree Days 23 (Base 50)    
Moisture  
Dew Point 63 °F    
Average Humidity 71    
Maximum Humidity 100    
Minimum Humidity 30    
Precipitation  
Precipitation 0.01 in - - ()
Sea Level Pressure  
Sea Level Pressure 30.16 in    
Wind  
Wind Speed 3 mph ()    
Max Wind Speed 15 mph    
Max Gust Speed -    
Visibility 9.3 miles    
Events Rain , Thunderstorm    
Averages and records for this station are not official NWS values.
T = Trace of Precipitation, MM = Missing Value Source: Averaged Metar Reports

Daily Weather History Graph

Daily Weather History Graph

Search for Another Location

Airport or City:

Trip Planner

Search our weather history database for the weather conditions in past years. The results will help you decide how hot, cold, wet, or windy it might be!

Date:

Astronomy

Jul. 07, 2013 Rise Set
Actual Time 5:51 AM EEST 9:28 PM EEST
Civil Twilight 5:13 AM EEST 10:05 PM EEST
Nautical Twilight 4:22 AM EEST 10:56 PM EEST
Astronomical Twilight 3:14 AM EEST 12:04 AM EEST
Moon 5:15 AM EEST (7/7) 8:34 PM EEST (7/7)
Length of Visible Light 16h 52m
Length of Day
15h 36m
Waning Crescent, 1% of the Moon is Illuminated
Jul 7
Waning Crescent
Jul 8
New
Jul 16
First Quarter
Jul 22
Full
Jul 29
Last Quarter

Hourly Weather History & Observations

Time (EEST) Temp. Heat Index Dew Point Humidity Pressure Visibility Wind Dir Wind Speed Gust Speed Precip Events Conditions
12:00 AM 67 °F - 61 °F 77% 30.16 in 12 mi East 2.2 mph - -  
12:00 AM 69.8 °F - 64.4 °F 83% 30.15 in - SE 6.9 mph - N/A   Clear
1:00 AM 65 °F - 62 °F 86% 30.16 in 12 mi SE 2.2 mph - -  
1:00 AM 66.2 °F - 66.2 °F 100% 30.15 in - NNE 3.5 mph - N/A   Clear
2:00 AM 65 °F - 61 °F 81% 30.17 in 12 mi NE 2.2 mph - -  
2:00 AM 66.2 °F - 64.4 °F 94% 30.15 in - North 3.5 mph - N/A   Clear
3:00 AM 63 °F - 61 °F 90% 30.17 in 12 mi NE 2.2 mph - -  
3:00 AM 64.4 °F - 64.4 °F 100% 30.15 in - Variable 2.3 mph - N/A   Clear
4:00 AM 62 °F - 61 °F 94% 30.16 in 12 mi Calm Calm - -  
4:00 AM 62.6 °F - 62.6 °F 100% 30.15 in - Variable 2.3 mph - N/A   Clear
5:00 AM 61 °F - 60 °F 95% 30.16 in 12 mi NNE 2.2 mph - -  
5:00 AM 60.8 °F - 60.8 °F 100% 30.15 in - NNW 3.5 mph - N/A   Clear
5:30 AM 60.8 °F - 60.8 °F 100% 30.15 in - North 3.5 mph - N/A   Clear
6:00 AM 60 °F - 59 °F 94% 30.17 in 12 mi North 2.2 mph - -  
6:00 AM 60.8 °F - 60.8 °F 100% 30.15 in - NNE 3.5 mph - N/A   Clear
6:30 AM 60.8 °F - 60.8 °F 100% 30.15 in - Calm Calm - N/A   Clear
7:00 AM 59 °F - 58 °F 97% 30.17 in 12 mi Calm Calm - -   Scattered Clouds
7:00 AM 60.8 °F - 60.8 °F 100% 30.15 in - Variable 2.3 mph - N/A   Clear
7:30 AM 64.4 °F - 64.4 °F 100% 30.15 in - Variable 2.3 mph - N/A   Clear
8:00 AM 64 °F - 60 °F 84% 30.17 in 6 mi North 2.2 mph - -   Scattered Clouds
8:00 AM 68.0 °F - 64.4 °F 88% 30.18 in - ENE 3.5 mph - N/A   Clear
8:30 AM 69.8 °F - 66.2 °F 88% 30.18 in - Variable 2.3 mph - N/A   Clear
9:00 AM 71 °F - 62 °F 67% 30.17 in 6 mi Calm Calm - -   Scattered Clouds
9:00 AM 73.4 °F - 64.4 °F 73% 30.18 in - Variable 2.3 mph - N/A   Clear
9:30 AM 75.2 °F - 64.4 °F 69% 30.18 in - Variable 3.5 mph - N/A   Clear
10:00 AM 75 °F - 63 °F 59% 30.18 in 12 mi East 2.2 mph - -   Scattered Clouds
10:00 AM 77.0 °F - 64.4 °F 65% 30.18 in - ENE 4.6 mph - N/A   Clear
10:30 AM 80.6 °F 82.3 °F 64.4 °F 58% 30.18 in - Variable 2.3 mph - N/A   Clear
11:00 AM 79 °F - 61 °F 44% 30.18 in 12 mi ENE 2.2 mph - -   Clear
11:00 AM 82.4 °F 84.6 °F 66.2 °F 58% 30.18 in - Variable 2.3 mph - N/A   Clear
11:30 AM 82.4 °F 83.9 °F 64.4 °F 54% 30.18 in - Variable 3.5 mph - N/A   Clear
12:00 PM 82 °F - 61 °F 39% 30.17 in 12 mi NNE 2.2 mph - -   Clear
12:00 PM 82.4 °F 83.9 °F 64.4 °F 54% 30.18 in - Variable 4.6 mph - N/A   Clear
12:30 PM 84.2 °F 85.0 °F 62.6 °F 48% 30.18 in - NE 5.8 mph - N/A   Clear
1:00 PM 85 °F - 62 °F 37% 30.17 in 6 mi ENE 2.2 mph - -   Scattered Clouds
1:00 PM 84.2 °F 85.0 °F 62.6 °F 48% 30.18 in 6.2 mi NE 8.1 mph - N/A   Partly Cloudy
1:30 PM 86.0 °F 86.6 °F 62.6 °F 45% 30.18 in 6.2 mi NNE 6.9 mph - N/A   Partly Cloudy
2:00 PM 86 °F - 62 °F 35% 30.17 in 12 mi ESE 2.2 mph - -   Partly Cloudy
2:00 PM 86.0 °F 86.6 °F 62.6 °F 45% 30.18 in 6.2 mi Variable 6.9 mph - N/A   Partly Cloudy
2:30 PM 86.0 °F 86.6 °F 62.6 °F 45% 30.15 in 6.2 mi Variable 6.9 mph - N/A   Partly Cloudy
3:00 PM 84 °F - 65 °F 42% 30.16 in 12 mi East 2.2 mph - -   Partly Cloudy
3:00 PM 87.8 °F 87.1 °F 59.0 °F 38% 30.15 in 6.2 mi Variable 6.9 mph - N/A   Partly Cloudy
3:30 PM 86.0 °F 85.4 °F 59.0 °F 40% 30.15 in 6.2 mi North 8.1 mph - N/A   Scattered Clouds
4:00 PM 85 °F - 58 °F 30% 30.14 in 12 mi North 2.2 mph - -   Mostly Cloudy
4:00 PM 87.8 °F 87.6 °F 60.8 °F 40% 30.15 in 6.2 mi North 6.9 mph - N/A   Scattered Clouds
4:30 PM 89.6 °F 88.1 °F 57.2 °F 33% 30.15 in 6.2 mi North 11.5 mph - N/A   Scattered Clouds
5:00 PM 86 °F - 61 °F 32% 30.14 in 12 mi NNE 6.7 mph - -   Mostly Cloudy
5:00 PM 80.6 °F 81.8 °F 62.6 °F 54% 30.15 in 6.2 mi ENE 15.0 mph - N/A Rain , Thunderstorm Light Thunderstorms and Rain
5:30 PM 78.8 °F - 66.2 °F 65% 30.15 in 6.2 mi ENE 8.1 mph - N/A Thunderstorm Thunderstorm
6:00 PM 76 °F - 66 °F 63% 30.15 in 12 mi ENE 2.2 mph - -   Mostly Cloudy
6:00 PM 80.6 °F 82.7 °F 66.2 °F 61% 30.15 in 6.2 mi East 3.5 mph - N/A   Scattered Clouds
6:30 PM 77.0 °F - 68.0 °F 74% 30.15 in 6.2 mi SSE 6.9 mph - N/A   Scattered Clouds
7:00 PM 75 °F - 64 °F 62% 30.15 in 12 mi SSE 4.5 mph - - Rain Light Rain Showers
7:00 PM 75.2 °F - 68.0 °F 78% 30.15 in 6.2 mi SSW 3.5 mph - N/A   Partly Cloudy
7:30 PM 75.2 °F - 68.0 °F 78% 30.15 in 6.2 mi SSW 4.6 mph - N/A   Partly Cloudy
8:00 PM 75 °F - 65 °F 64% 30.14 in 12 mi SSW 4.5 mph - -   Partly Cloudy
8:00 PM 75.2 °F - 68.0 °F 78% 30.15 in 6.2 mi Variable 2.3 mph - N/A   Partly Cloudy
8:30 PM 75.2 °F - 69.8 °F 83% 30.15 in - Calm Calm - N/A   Clear
9:00 PM 73 °F - 68 °F 78% 30.16 in 12 mi ESE 2.2 mph - -   Partly Cloudy
9:00 PM 73.4 °F - 69.8 °F 88% 30.15 in - WSW 1.2 mph - N/A   Clear
10:00 PM 69 °F - 67 °F 90% 30.18 in 12 mi ESE 2.2 mph - -   Scattered Clouds
10:00 PM 71.6 °F - 69.8 °F 94% 30.18 in - East 4.6 mph - N/A   Clear
11:00 PM 69 °F - 65 °F 85% 30.19 in 12 mi Calm Calm - -   Partly Cloudy
11:00 PM 68.0 °F - 68.0 °F 100% 30.18 in - West 3.5 mph - N/A   Clear